Погода в Шергине

Россия / Республика Бурятия     52°06′49″N   106°44′14″E
темп.,
°C
ветер,
м/с
пор.,
м/с
влажн.,
%
обл.,
%
осадки,
мм/ч
давл.,
гПа
погр.,
м
22 января, пт
пт2223:00−18юв228242 0.0 102537
02:00−18юв238640 0.0 102348
05:00−17в128460 0.0 102239
08:00−16всв128580 0.0 102250
11:00−14всв128527 0.0 102178
14:00−9всв248413 0.0 1017187
17:00−12вюв25810 0.0 1016112
20:00−14юв25801 0.0 1016104
23 января, сб
сб2323:00−13юв358067 0.0 101589
02:00−13вюв138384 0.0 101567
05:00−14вюв118084 0.0 101627
08:00−14ююв117860 0.0 101921
11:00−11в0183100 0.0 102037
14:00−7сз128988 0.0 1021252
17:00−7зсз249797 0.5 1023188
20:00−8з249799 1.4 1027184
24 января, вс
вс2423:00−9сз2497100 1.1 1028177
02:00−10сз2497100 2.1 1029159
05:00−12з2296100 0.6 102974
08:00−13з1195100 0.9 103022
11:00−12зсз1292100 0.1 1031186
14:00−11сз2389100 0.1 1029545
17:00−12зсз3592100 0.2 1029400
20:00−13зсз2594100 0.5 1030254
25 января, пн
пн2523:00−14зсз2593100 0.3 1029286
02:00−14сз3696100 1.0 1029466
05:00−15сз3697100 1.2 1028393
08:00−16зсз2498100 2.3 1029205
11:00−16зсз3596100 1.0 1029421
14:00−16зсз4795100 1.9 1027894
17:00−17сз4997100 0.9 1028949
20:00−17сз3897100 1.8 1030677
26 января, вт
вт2623:00−18сз3992100 0.6 1031766
02:00−18зсз3894100 1.1 1032616
05:00−20зсз3894100 0.3 1033487
08:00−23з2395100 0.3 103540
11:00−20з379485 0.0 1035562
14:00−19з488992 0.1 1034905
17:00−20з3694100 0.1 1036237
20:00−23зюз2298100 0.2 103842